Location: Esp�n
(42.4593°N, 0.2047°W)
Time: 08:21:25
(UTC+00:00)

IRS-1D - Pass Details

Date: 07 June 2020
Orbit: 740 x 817 km, 98.6° (Epoch: 09 July)

Event Time Altitude Azimuth Distance (km) Brightness Sun altitude
Rises 02:47:00 0° 8° (N) 3,327 7.9 -14.2°
Reaches altitude 10° 02:49:25 10° 3° (N) 2,383 6.9 -13.9°
Maximum altitude 02:54:27 48° 290° (WNW) 1,020 4.0 -13.3°
Enters shadow 02:58:00 18° 223° (SW) 1,818 4.8 -12.9°
